Tracking 34794 objects as of 19-Jul-2026
HD Live streaming from Space Station
objects crossing your sky now

CZ-4 DEB

Track CZ-4 DEB now!
10-day predictions


NORAD ID: 23254
Int'l Code: 1990-081CK
Perigee: 712.1 km
Apogee: 807.5 km
Inclination: 98.5 °
Period: 99.9 minutes
Semi major axis: 7130 km
RCS: 0.0074 m2 (small)
Launch date: September 3, 1990
Source: People's Republic of China (PRC)
Launch site: Taiyaun Space Center, China (TSC)

Note: This is SATELLITE DEBRIS
Your satellite tracking list
Your tracking list is empty




NASA's NSSDC Master Catalog

Two Line Element Set (TLE):
1 23254U 90081CK  26199.89466753  .00000454  00000-0  14884-3 0  9990
2 23254  98.4666 261.6355 0066881 113.9256 246.8958 14.41758196682229
Source of the keplerian elements: AFSPC